DAL354 KLAX-KSLC

Flight info

Callsign DAL354
Flight time 1h 19m
Altitude 33000
Route ORCKA5 LAS Q70 BLIPP Q842 WINEN MLF QWENN6
Aircraft A320/M-SDE3FGHIRWY/LB1

Departure

Time 2026-04-22 22:02
Airport Los Angeles International Airport (KLAX)

Arrival

Time 2026-04-22 23:21
Airport Salt Lake City International Airport (KSLC)
Time Latitude Longitude Altitude Speed Heading
2026-04-22 21:14 33.94741 -118.40438 126 ft 0 kts 174°
2026-04-22 21:46 33.94752 -118.40440 122 ft 2 kts 174°
2026-04-22 21:46 33.94769 -118.40442 123 ft 2 kts 174°
2026-04-22 21:47 33.94786 -118.40442 124 ft 2 kts 177°
2026-04-22 21:47 33.94802 -118.40437 120 ft 2 kts 248°
2026-04-22 21:47 33.94804 -118.40431 122 ft 0 kts 264°
2026-04-22 21:50 33.94801 -118.40449 123 ft 8 kts 260°
2026-04-22 21:51 33.94786 -118.40571 124 ft 18 kts 262°
2026-04-22 21:51 33.94770 -118.40719 125 ft 18 kts 263°
2026-04-22 21:51 33.94756 -118.40867 125 ft 18 kts 263°
2026-04-22 21:52 33.94718 -118.41169 123 ft 19 kts 253°
2026-04-22 21:52 33.94687 -118.41322 121 ft 18 kts 250°
2026-04-22 21:52 33.94580 -118.41367 123 ft 18 kts 169°
2026-04-22 21:52 33.94451 -118.41351 124 ft 19 kts 173°
2026-04-22 21:53 33.94321 -118.41330 124 ft 19 kts 170°
2026-04-22 21:53 33.94186 -118.41309 123 ft 20 kts 173°
2026-04-22 21:53 33.94062 -118.41291 126 ft 18 kts 172°
2026-04-22 21:53 33.93937 -118.41274 124 ft 19 kts 173°
2026-04-22 21:54 33.93804 -118.41254 123 ft 18 kts 167°
2026-04-22 21:54 33.93762 -118.41137 126 ft 16 kts 83°
2026-04-22 21:54 33.93775 -118.41012 126 ft 14 kts 83°
2026-04-22 21:54 33.93786 -118.40900 126 ft 13 kts 83°
2026-04-22 21:55 33.93797 -118.40800 122 ft 12 kts 82°
2026-04-22 21:55 33.93806 -118.40713 125 ft 17 kts 83°
2026-04-22 21:55 33.93823 -118.40532 126 ft 15 kts 83°
2026-04-22 21:55 33.93831 -118.40451 126 ft 14 kts 83°
2026-04-22 21:56 33.93843 -118.40339 126 ft 13 kts 82°
2026-04-22 21:56 33.93858 -118.40203 126 ft 19 kts 83°
2026-04-22 21:56 33.93874 -118.40048 126 ft 18 kts 83°
2026-04-22 21:56 33.93888 -118.39906 124 ft 16 kts 83°
2026-04-22 21:57 33.93901 -118.39778 126 ft 15 kts 83°
2026-04-22 21:57 33.93912 -118.39662 124 ft 13 kts 83°
2026-04-22 21:57 33.93925 -118.39546 126 ft 19 kts 83°
2026-04-22 21:57 33.93945 -118.39351 124 ft 24 kts 83°
2026-04-22 21:58 33.93964 -118.39163 126 ft 22 kts 83°
2026-04-22 21:58 33.93981 -118.38990 126 ft 20 kts 83°
2026-04-22 21:58 33.93997 -118.38832 121 ft 18 kts 83°
2026-04-22 21:58 33.94012 -118.38686 122 ft 17 kts 83°
2026-04-22 21:59 33.94027 -118.38552 122 ft 15 kts 81°
2026-04-22 21:59 33.94039 -118.38429 122 ft 15 kts 85°
2026-04-22 21:59 33.94050 -118.38308 123 ft 15 kts 83°
2026-04-22 21:59 33.94063 -118.38191 125 ft 13 kts 82°
2026-04-22 22:00 33.94074 -118.38087 125 ft 12 kts 85°
2026-04-22 22:00 33.94051 -118.38004 125 ft 10 kts 141°
2026-04-22 22:00 33.93993 -118.38008 122 ft 9 kts 219°
2026-04-22 22:00 33.93979 -118.38081 125 ft 10 kts 265°
2026-04-22 22:01 33.93969 -118.38181 124 ft 20 kts 263°
2026-04-22 22:01 33.93920 -118.38636 126 ft 88 kts 263°
2026-04-22 22:01 33.93822 -118.39594 124 ft 140 kts 264°
2026-04-22 22:01 33.93693 -118.40907 362 ft 163 kts 264°
2026-04-22 22:02 33.93586 -118.42230 1123 ft 156 kts 266°
2026-04-22 22:02 33.93516 -118.43622 1497 ft 179 kts 267°
2026-04-22 22:02 33.93403 -118.45210 1897 ft 202 kts 261°
2026-04-22 22:02 33.92929 -118.46899 2271 ft 226 kts 244°
2026-04-22 22:03 33.92267 -118.48704 2798 ft 243 kts 249°
2026-04-22 22:03 33.91594 -118.50608 3484 ft 252 kts 248°
2026-04-22 22:03 33.90889 -118.52568 4279 ft 258 kts 249°
2026-04-22 22:03 33.90174 -118.54567 5123 ft 262 kts 250°
2026-04-22 22:04 33.89352 -118.56539 5991 ft 268 kts 237°
2026-04-22 22:04 33.87947 -118.58041 6826 ft 278 kts 211°
2026-04-22 22:04 33.86058 -118.58643 7626 ft 289 kts 183°
2026-04-22 22:04 33.84082 -118.58100 8406 ft 300 kts 154°
2026-04-22 22:05 33.82525 -118.56419 9188 ft 308 kts 123°
2026-04-22 22:05 33.81841 -118.53983 9936 ft 313 kts 91°
2026-04-22 22:05 33.82247 -118.51442 10593 ft 312 kts 59°
2026-04-22 22:05 33.83635 -118.49496 11202 ft 307 kts 28°
2026-04-22 22:06 33.85512 -118.48291 11861 ft 307 kts 20°
2026-04-22 22:06 33.87470 -118.47138 12269 ft 323 kts 20°
2026-04-22 22:06 33.89535 -118.45935 12515 ft 343 kts 20°
2026-04-22 22:06 33.91702 -118.44648 13065 ft 352 kts 23°
2026-04-22 22:07 33.93656 -118.42795 13689 ft 368 kts 44°
2026-04-22 22:07 33.95278 -118.40366 14287 ft 376 kts 50°
2026-04-22 22:07 33.96778 -118.37755 14861 ft 382 kts 52°
2026-04-22 22:07 33.98221 -118.35045 15453 ft 387 kts 54°
2026-04-22 22:08 33.99666 -118.32284 16018 ft 392 kts 53°
2026-04-22 22:08 34.01145 -118.29505 16577 ft 396 kts 52°
2026-04-22 22:08 34.02669 -118.26719 17132 ft 400 kts 52°
2026-04-22 22:08 34.04233 -118.23924 17705 ft 404 kts 51°
2026-04-22 22:09 34.05832 -118.21109 18256 ft 409 kts 51°
2026-04-22 22:09 34.07451 -118.18273 18737 ft 413 kts 51°
2026-04-22 22:09 34.09089 -118.15403 19209 ft 417 kts 51°
2026-04-22 22:09 34.10740 -118.12503 19696 ft 421 kts 51°
2026-04-22 22:10 34.12399 -118.09578 20186 ft 425 kts 51°
2026-04-22 22:10 34.14069 -118.06619 20666 ft 429 kts 51°
2026-04-22 22:10 34.15753 -118.03626 21145 ft 432 kts 51°
2026-04-22 22:10 34.17450 -118.00608 21623 ft 436 kts 51°
2026-04-22 22:11 34.19161 -117.97564 22060 ft 440 kts 52°
2026-04-22 22:11 34.20887 -117.94492 22523 ft 443 kts 52°
2026-04-22 22:11 34.22625 -117.91396 22931 ft 448 kts 52°
2026-04-22 22:11 34.24380 -117.88271 23399 ft 451 kts 52°
2026-04-22 22:12 34.26146 -117.85121 23833 ft 454 kts 52°
2026-04-22 22:12 34.27926 -117.81945 24242 ft 458 kts 52°
2026-04-22 22:12 34.29717 -117.78745 24654 ft 461 kts 52°
2026-04-22 22:12 34.31515 -117.75528 25070 ft 463 kts 52°
2026-04-22 22:13 34.33318 -117.72295 25456 ft 466 kts 52°
2026-04-22 22:13 34.35135 -117.69034 25851 ft 468 kts 51°
2026-04-22 22:13 34.36991 -117.65788 26223 ft 470 kts 50°
2026-04-22 22:13 34.38902 -117.62567 26574 ft 472 kts 49°
2026-04-22 22:14 34.40850 -117.59357 26898 ft 474 kts 49°
2026-04-22 22:14 34.42814 -117.56139 27235 ft 476 kts 49°
2026-04-22 22:14 34.44783 -117.52902 27587 ft 479 kts 49°
2026-04-22 22:14 34.46754 -117.49633 27959 ft 482 kts 49°
2026-04-22 22:15 34.48725 -117.46333 28290 ft 484 kts 50°
2026-04-22 22:15 34.50694 -117.43012 28615 ft 487 kts 50°
2026-04-22 22:15 34.52670 -117.39664 28933 ft 489 kts 50°
2026-04-22 22:15 34.54656 -117.36297 29245 ft 492 kts 50°
2026-04-22 22:16 34.56651 -117.32918 29553 ft 494 kts 50°
2026-04-22 22:16 34.58657 -117.29526 29864 ft 496 kts 50°
2026-04-22 22:16 34.60673 -117.26121 30158 ft 498 kts 50°
2026-04-22 22:16 34.62698 -117.22702 30403 ft 500 kts 50°
2026-04-22 22:17 34.64732 -117.19263 30629 ft 502 kts 50°
2026-04-22 22:17 34.66769 -117.15813 30804 ft 504 kts 50°
2026-04-22 22:17 34.68816 -117.12340 31030 ft 506 kts 50°
2026-04-22 22:17 34.70867 -117.08850 31259 ft 508 kts 50°
2026-04-22 22:18 34.72925 -117.05346 31466 ft 510 kts 50°
2026-04-22 22:18 34.74963 -117.01874 31670 ft 512 kts 50°
2026-04-22 22:18 34.77038 -116.98344 31878 ft 514 kts 50°
2026-04-22 22:18 34.79123 -116.94800 32091 ft 516 kts 50°
2026-04-22 22:19 34.81211 -116.91244 32287 ft 518 kts 50°
2026-04-22 22:19 34.83304 -116.87668 32507 ft 520 kts 50°
2026-04-22 22:19 34.85401 -116.84076 32646 ft 522 kts 50°
2026-04-22 22:19 34.87509 -116.80462 32804 ft 524 kts 50°
2026-04-22 22:20 34.89620 -116.76838 32979 ft 525 kts 50°
2026-04-22 22:20 34.94014 -116.69733 33057 ft 523 kts 45°
2026-04-22 22:21 34.98899 -116.63188 33042 ft 523 kts 40°
2026-04-22 22:21 35.04018 -116.56860 33031 ft 525 kts 39°
2026-04-22 22:22 35.09074 -116.50403 33023 ft 527 kts 41°
2026-04-22 22:22 35.14028 -116.43800 33015 ft 527 kts 42°
2026-04-22 22:23 35.18962 -116.37163 33038 ft 528 kts 42°
2026-04-22 22:23 35.23922 -116.30550 33025 ft 527 kts 41°
2026-04-22 22:24 35.28899 -116.23956 33025 ft 528 kts 41°
2026-04-22 22:24 35.33870 -116.17352 33015 ft 528 kts 41°
2026-04-22 22:25 35.38837 -116.10722 33021 ft 528 kts 42°
2026-04-22 22:25 35.43796 -116.04066 33022 ft 529 kts 42°
2026-04-22 22:26 35.48754 -115.97397 33031 ft 529 kts 42°
2026-04-22 22:26 35.53718 -115.90729 33028 ft 529 kts 42°
2026-04-22 22:27 35.58685 -115.84051 33034 ft 530 kts 42°
2026-04-22 22:27 35.63650 -115.77360 33035 ft 530 kts 42°
2026-04-22 22:28 35.68547 -115.70656 33037 ft 531 kts 43°
2026-04-22 22:28 35.73457 -115.63872 33038 ft 531 kts 43°
2026-04-22 22:29 35.78366 -115.57088 33043 ft 531 kts 43°
2026-04-22 22:29 35.83281 -115.50297 33080 ft 531 kts 43°
2026-04-22 22:30 35.88203 -115.43495 33041 ft 532 kts 43°
2026-04-22 22:30 35.93127 -115.36666 33028 ft 533 kts 43°
2026-04-22 22:31 35.98053 -115.29819 33028 ft 534 kts 43°
2026-04-22 22:31 36.02982 -115.22963 32988 ft 534 kts 43°
2026-04-22 22:32 36.07934 -115.16117 32985 ft 533 kts 41°
2026-04-22 22:32 36.13247 -115.09795 32987 ft 528 kts 34°
2026-04-22 22:33 36.18882 -115.04002 32955 ft 527 kts 32°
2026-04-22 22:33 36.24546 -114.98221 32937 ft 529 kts 33°
2026-04-22 22:34 36.30123 -114.92231 32928 ft 531 kts 35°
2026-04-22 22:34 36.35652 -114.86141 32916 ft 532 kts 35°
2026-04-22 22:35 36.41200 -114.80068 32908 ft 532 kts 34°
2026-04-22 22:35 36.46779 -114.74029 32924 ft 533 kts 34°
2026-04-22 22:36 36.52371 -114.67972 32893 ft 534 kts 34°
2026-04-22 22:36 36.57954 -114.61878 32896 ft 534 kts 34°
2026-04-22 22:37 36.63536 -114.55755 32890 ft 535 kts 34°
2026-04-22 22:37 36.69084 -114.49670 32893 ft 535 kts 34°
2026-04-22 22:38 36.75042 -114.44347 32921 ft 524 kts 24°
2026-04-22 22:38 36.81223 -114.39500 32897 ft 525 kts 24°
2026-04-22 22:39 36.87422 -114.34649 32909 ft 526 kts 24°
2026-04-22 22:39 36.93628 -114.29775 32882 ft 527 kts 24°
2026-04-22 22:40 36.99837 -114.24882 32897 ft 528 kts 24°
2026-04-22 22:40 37.06061 -114.19973 32929 ft 530 kts 24°
2026-04-22 22:41 37.12296 -114.15035 32904 ft 530 kts 24°
2026-04-22 22:41 37.18533 -114.10085 32905 ft 531 kts 24°
2026-04-22 22:42 37.23721 -114.05963 32919 ft 531 kts 24°
2026-04-22 22:42 37.29971 -114.00996 32952 ft 532 kts 24°
2026-04-22 22:43 37.36226 -113.96007 32925 ft 533 kts 24°
2026-04-22 22:43 37.42486 -113.90999 32920 ft 534 kts 25°
2026-04-22 22:44 37.48753 -113.85979 32926 ft 534 kts 25°
2026-04-22 22:44 37.55022 -113.80953 32979 ft 535 kts 24°
2026-04-22 22:45 37.61297 -113.75918 32945 ft 535 kts 24°
2026-04-22 22:45 37.67574 -113.70868 32936 ft 536 kts 25°
2026-04-22 22:46 37.73856 -113.65796 32935 ft 536 kts 25°
2026-04-22 22:46 37.80138 -113.60712 32928 ft 536 kts 25°
2026-04-22 22:47 37.86419 -113.55633 32937 ft 535 kts 25°
2026-04-22 22:47 37.92638 -113.50565 32933 ft 537 kts 28°
2026-04-22 22:48 37.98378 -113.44332 32920 ft 545 kts 36°
2026-04-22 22:48 38.04026 -113.37900 32917 ft 546 kts 36°
2026-04-22 22:49 38.09678 -113.31462 32951 ft 546 kts 36°
2026-04-22 22:49 38.15337 -113.25020 32937 ft 546 kts 36°
2026-04-22 22:50 38.20990 -113.18579 32936 ft 546 kts 36°
2026-04-22 22:50 38.26633 -113.12123 32976 ft 546 kts 36°
2026-04-22 22:51 38.32280 -113.05644 32998 ft 547 kts 36°
2026-04-22 22:51 38.38324 -113.00104 33006 ft 521 kts 13°
2026-04-22 22:52 38.45040 -112.96677 33005 ft 518 kts 13°
2026-04-22 22:52 38.51622 -112.93086 32995 ft 512 kts 14°
2026-04-22 22:53 38.58166 -112.89512 32976 ft 511 kts 13°
2026-04-22 22:53 38.64714 -112.85999 32932 ft 510 kts 13°
2026-04-22 22:54 38.71271 -112.82502 32901 ft 510 kts 13°
2026-04-22 22:54 38.74546 -112.80750 32656 ft 509 kts 13°
2026-04-22 22:54 38.77810 -112.78999 31781 ft 510 kts 13°
2026-04-22 22:54 38.81091 -112.77238 30910 ft 512 kts 13°
2026-04-22 22:55 38.84370 -112.75472 30208 ft 511 kts 14°
2026-04-22 22:55 38.87633 -112.73708 29959 ft 504 kts 14°
2026-04-22 22:55 38.93845 -112.70311 29901 ft 475 kts 13°
2026-04-22 22:56 38.99890 -112.67043 29904 ft 470 kts 13°
2026-04-22 22:56 39.05915 -112.63806 29903 ft 469 kts 13°
2026-04-22 22:57 39.11941 -112.60550 29888 ft 470 kts 13°
2026-04-22 22:57 39.17962 -112.57268 29907 ft 470 kts 13°
2026-04-22 22:58 39.23988 -112.53980 29910 ft 470 kts 13°
2026-04-22 22:58 39.30008 -112.50684 29901 ft 470 kts 13°
2026-04-22 22:59 39.33004 -112.49019 29519 ft 467 kts 14°
2026-04-22 22:59 39.35972 -112.47328 28965 ft 466 kts 14°
2026-04-22 22:59 39.38921 -112.45623 28465 ft 462 kts 14°
2026-04-22 22:59 39.41844 -112.43923 27965 ft 460 kts 14°
2026-04-22 23:00 39.44749 -112.42233 27498 ft 456 kts 14°
2026-04-22 23:00 39.47635 -112.40559 27050 ft 453 kts 14°
2026-04-22 23:00 39.50500 -112.38901 26594 ft 449 kts 14°
2026-04-22 23:00 39.53344 -112.37262 26166 ft 446 kts 14°
2026-04-22 23:01 39.56169 -112.35637 25747 ft 442 kts 14°
2026-04-22 23:01 39.58975 -112.34022 25378 ft 439 kts 13°
2026-04-22 23:01 39.61754 -112.32420 24964 ft 436 kts 13°
2026-04-22 23:01 39.64510 -112.30829 24415 ft 431 kts 13°
2026-04-22 23:02 39.67236 -112.29255 23876 ft 427 kts 13°
2026-04-22 23:02 39.69937 -112.27694 23305 ft 422 kts 13°
2026-04-22 23:02 39.72609 -112.26146 22681 ft 418 kts 14°
2026-04-22 23:02 39.75247 -112.24615 22074 ft 413 kts 15°
2026-04-22 23:03 39.77849 -112.23103 21550 ft 406 kts 15°
2026-04-22 23:03 39.80383 -112.21624 21274 ft 394 kts 16°
2026-04-22 23:03 39.82855 -112.20180 20822 ft 385 kts 17°
2026-04-22 23:03 39.85279 -112.18766 20195 ft 378 kts 17°
2026-04-22 23:04 39.87664 -112.17381 19593 ft 372 kts 18°
2026-04-22 23:04 39.90006 -112.16022 19027 ft 366 kts 19°
2026-04-22 23:04 39.92310 -112.14681 18466 ft 360 kts 20°
2026-04-22 23:04 39.94546 -112.13377 17903 ft 353 kts 21°
2026-04-22 23:05 39.96804 -112.12073 17258 ft 347 kts 18°
2026-04-22 23:05 39.99057 -112.10982 16553 ft 344 kts 15°
2026-04-22 23:05 40.01292 -112.10051 15949 ft 339 kts 13°
2026-04-22 23:05 40.03542 -112.09191 15387 ft 334 kts 12°
2026-04-22 23:06 40.05751 -112.08369 14901 ft 326 kts 12°
2026-04-22 23:06 40.07914 -112.07554 14390 ft 321 kts 12°
2026-04-22 23:06 40.10047 -112.06732 13839 ft 317 kts 13°
2026-04-22 23:06 40.12154 -112.05907 13347 ft 315 kts 13°
2026-04-22 23:07 40.14239 -112.05079 12892 ft 312 kts 13°
2026-04-22 23:07 40.16299 -112.04255 12502 ft 305 kts 13°
2026-04-22 23:07 40.18264 -112.03462 12279 ft 289 kts 13°
2026-04-22 23:07 40.20157 -112.02700 11826 ft 282 kts 13°
2026-04-22 23:08 40.22023 -112.01952 11302 ft 279 kts 13°
2026-04-22 23:08 40.23866 -112.01216 10983 ft 275 kts 12°
2026-04-22 23:08 40.25703 -112.00486 10954 ft 277 kts 13°
2026-04-22 23:08 40.27510 -111.99762 10950 ft 263 kts 12°
2026-04-22 23:09 40.29239 -111.99063 10956 ft 258 kts 12°
2026-04-22 23:09 40.30946 -111.98381 10957 ft 256 kts 12°
2026-04-22 23:09 40.32648 -111.97700 10957 ft 256 kts 13°
2026-04-22 23:09 40.34347 -111.97015 10953 ft 256 kts 12°
2026-04-22 23:10 40.36031 -111.96335 10951 ft 248 kts 12°
2026-04-22 23:10 40.37665 -111.95674 10950 ft 245 kts 12°
2026-04-22 23:10 40.39301 -111.95064 10954 ft 242 kts
2026-04-22 23:10 40.40939 -111.95147 10953 ft 235 kts 347°
2026-04-22 23:11 40.42568 -111.95357 10946 ft 235 kts 347°
2026-04-22 23:11 40.44053 -111.96068 10942 ft 223 kts 315°
2026-04-22 23:11 40.44941 -111.97636 10939 ft 213 kts 283°
2026-04-22 23:11 40.44978 -111.99467 10926 ft 209 kts 251°
2026-04-22 23:12 40.44142 -112.01028 11096 ft 218 kts 218°
2026-04-22 23:12 40.42676 -112.01820 11289 ft 242 kts 196°
2026-04-22 23:12 40.40984 -112.02071 10974 ft 245 kts 187°
2026-04-22 23:12 40.39318 -112.01628 10955 ft 252 kts 156°
2026-04-22 23:13 40.37984 -112.00102 10869 ft 261 kts 126°
2026-04-22 23:13 40.37341 -111.97884 10540 ft 264 kts 95°
2026-04-22 23:13 40.37592 -111.95525 10181 ft 263 kts 64°
2026-04-22 23:13 40.38666 -111.93657 9837 ft 255 kts 33°
2026-04-22 23:14 40.40236 -111.92790 9465 ft 240 kts 356°
2026-04-22 23:14 40.41850 -111.93079 9049 ft 234 kts 343°
2026-04-22 23:14 40.43464 -111.93386 8950 ft 237 kts 348°
2026-04-22 23:14 40.45079 -111.93581 8938 ft 230 kts 348°
2026-04-22 23:15 40.46674 -111.93760 8938 ft 229 kts 348°
2026-04-22 23:15 40.48257 -111.93941 8954 ft 227 kts 350°
2026-04-22 23:15 40.49825 -111.94121 8940 ft 226 kts 349°
2026-04-22 23:15 40.51391 -111.94301 8944 ft 226 kts 347°
2026-04-22 23:16 40.52939 -111.94479 8977 ft 221 kts 349°
2026-04-22 23:16 40.54469 -111.94655 8718 ft 219 kts 348°
2026-04-22 23:16 40.55980 -111.94828 8438 ft 217 kts 347°
2026-04-22 23:16 40.57463 -111.94999 8159 ft 212 kts 348°
2026-04-22 23:17 40.58907 -111.95165 7875 ft 204 kts 347°
2026-04-22 23:17 40.60302 -111.95326 7608 ft 200 kts 351°
2026-04-22 23:17 40.61680 -111.95486 7353 ft 199 kts 349°
2026-04-22 23:17 40.63043 -111.95644 7085 ft 195 kts 352°
2026-04-22 23:18 40.64371 -111.95797 6832 ft 193 kts 355°
2026-04-22 23:18 40.65627 -111.95943 6589 ft 169 kts 357°
2026-04-22 23:18 40.66723 -111.96071 6367 ft 156 kts 357°
2026-04-22 23:18 40.67788 -111.96193 6170 ft 150 kts 356°
2026-04-22 23:19 40.68828 -111.96313 5981 ft 150 kts 355°
2026-04-22 23:19 40.69859 -111.96432 5782 ft 148 kts 352°
2026-04-22 23:19 40.70887 -111.96551 5594 ft 148 kts 352°
2026-04-22 23:19 40.71907 -111.96668 5420 ft 146 kts 347°
2026-04-22 23:20 40.72922 -111.96766 5187 ft 148 kts 353°
2026-04-22 23:20 40.73946 -111.96830 4978 ft 150 kts 351°
2026-04-22 23:20 40.74982 -111.96979 4750 ft 148 kts 349°
2026-04-22 23:20 40.75984 -111.97083 4554 ft 140 kts 350°
2026-04-22 23:21 40.76935 -111.97202 4394 ft 136 kts 348°
2026-04-22 23:21 40.77911 -111.97347 4294 ft 139 kts 350°
2026-04-22 23:21 40.78752 -111.97467 4237 ft 91 kts 356°
2026-04-22 23:21 40.79136 -111.97544 4236 ft 43 kts 336°
2026-04-22 23:22 40.79199 -111.97607 4235 ft 0 kts 302°
2026-04-22 23:22 40.79199 -111.97608 4235 ft 1 kts 302°
2026-04-22 23:22 40.79202 -111.97673 4234 ft 16 kts 254°
2026-04-22 23:23 40.79105 -111.97725 4234 ft 16 kts 179°
2026-04-22 23:23 40.78989 -111.97714 4236 ft 17 kts 174°
2026-04-22 23:23 40.78948 -111.97709 4236 ft 17 kts 174°
2026-04-22 23:24 40.78654 -111.97665 4235 ft 14 kts 175°
2026-04-22 23:24 40.78559 -111.97662 4234 ft 13 kts 192°
2026-04-22 23:24 40.78556 -111.97754 4235 ft 13 kts 338°
2026-04-22 23:24 40.78662 -111.97767 4235 ft 24 kts 349°
2026-04-22 23:25 40.78743 -111.97933 4235 ft 26 kts 257°
2026-04-22 23:25 40.78732 -111.98165 4235 ft 25 kts 265°
2026-04-22 23:25 40.78718 -111.98386 4235 ft 23 kts 264°
2026-04-22 23:25 40.78703 -111.98587 4235 ft 20 kts 264°
2026-04-22 23:26 40.78689 -111.98768 4235 ft 19 kts 265°
2026-04-22 23:26 40.78626 -111.98830 4235 ft 10 kts 169°
2026-04-22 23:26 40.78603 -111.98827 4235 ft 0 kts 173°